Regional Weather Roundup
Issued by NWS

Home | Current Version | Previous Version | Text Only | Print | Product List | Glossary On
Versions: 1 2 3 4 5 6 7 8 9 10 11 12 13 14 15 16 17 18 19 20 21 22 23 24 25 26 27 28 29 30 31 32 33 34 35 36 37 38 39 40 41 42 43 44 45 46 47 48 49 50
000
ASUS44 KFWD 312215
RWRTX
NORTH TEXAS HOURLY WEATHER ROUNDUP
NATIONAL WEATHER SERVICE FORT WORTH TX
500 PM CDT THU JUL 31 2014

NOTE: "FAIR" INDICATES FEW OR NO CLOUDS BELOW 12,000 FEET WITH NO
SIGNIFICANT WEATHER AND/OR OBSTRUCTIONS TO VISIBILITY.

TXZ118-119-312300-
DALLAS/FORT WORTH METROPLEX

CITY           SKY/WX    TMP DP  RH WIND       PRES   REMARKS
DFW AIRPORT    CLOUDY    77  66  68 N15       29.99S
DALLAS LOVE    CLOUDY    77  66  68 N13       29.98S
FTW MEACHAM    CLOUDY    76  66  71 N13       30.00R
DAL-EXECUTIVE  CLOUDY    80  66  62 NW13      29.98S
FTW-ALLIANCE   CLOUDY    74  65  73 N14       30.00R
FTW-NAS-JRB    CLOUDY    79  64  60 N12       30.04S
FTW-SPINKS     CLOUDY    77  64  65 N12       30.02S
ARLINGTON      CLOUDY    78  65  63 NW14      29.99S
GRAND PRAIRIE  PTSUNNY   77  64  65 NW8       30.00F
ADDISON        CLOUDY    73  66  78 NW13G24   30.00R
MESQUITE       CLOUDY    77  66  69 MISG        N/A
LANCASTER      CLOUDY    80  65  59 N10G17    29.98S
$$

TXZ091>094-102>105-117-120-121-131>134-312300-
NORTH CENTRAL TEXAS

CITY           SKY/WX    TMP DP  RH WIND       PRES   REMARKS
SHRMAN/DENISON CLOUDY    71  66  84 N10       30.03S
GAINESVILLE    CLOUDY    70  66  85 N12G20    30.05R
BOWIE          CLOUDY    75  67  76 N5        30.04S
BRIDGEPORT     CLOUDY    76  63  62 N10G17    30.05R
DECATUR        CLOUDY    73  64  72 N9G17     30.03F
DENTON         CLOUDY    73  67  81 N13G21    30.01S
MCKINNEY       CLOUDY    73  68  84 N13       29.99R
GREENVILLE     CLOUDY    73  72  94 NE5       29.97R FOG
ROCKWALL       CLOUDY    75  70  84 N13G21    29.96S
TERRELL        CLOUDY    80  72  76 N12       29.96S
WAXAHACHIE     PTSUNNY   78  65  63 NW16      29.99S
CLEBURNE       CLOUDY    77  68  73 NW10      30.02S
GRANBURY       CLOUDY    79  65  61 NW8       30.03S
$$

TXZ083>090-098>101-113>116-127>130-139>142-154-155-312300-
WESTERN NORTH TEXAS

CITY           SKY/WX    TMP DP  RH WIND       PRES   REMARKS
WICHITA FALLS  CLOUDY    79  66  65 N12       30.04F
WF-KICKAPOO    CLOUDY    79  64  60 N12G17    30.06S
VERNON         CLOUDY    77  64  63 N8        30.08F
ABILENE        CLOUDY    80  63  55 N15       30.06F
ABILENE-DYESS  PTSUNNY   79  64  59 NE10      30.06F
BRECKENRIDGE   CLOUDY    80  64  57 N7        30.04F HAZE
GRAHAM         CLOUDY    78  65  65 N13       30.03S
MINERAL WELLS  CLOUDY    78  65  63 NW14      30.01F
STEPHENVILLE   CLOUDY    78  63  59 N12       30.06S
COMANCHE       CLOUDY    83  62  49 N10G20    30.03S
BROWNWOOD      CLOUDY    82  64  54 N10       30.02F
COLEMAN        PTSUNNY   84  62  46 N8        30.04F
BRADY          MOSUNNY   84  64  51 VRB7      30.04F
$$

TXZ143>147-156>162-174-175-312300-
CENTRAL TEXAS

CITY           SKY/WX    TMP DP  RH WIND       PRES   REMARKS
WACO           PTSUNNY   90  67  46 NW16G23   29.95F HX  93
WACO-TSTC      PTSUNNY   86  70  58 NW13G18   29.95F HX  90
WACO-MCGREGOR  PTSUNNY   88  66  48 NW13G20   29.97S HX  90
HILLSBORO      MOSUNNY   83  65  55 NW17      29.98S
CORSICANA      CLOUDY    83  69  62 NW17G24   29.96R
MEXIA          PTSUNNY   87  72  61 W12G22    29.93S HX  93
HEARNE         PTSUNNY   91  73  55 W6        29.90F HX 100
CAMERON        MOSUNNY   92  72  51 W7        29.91F HX 100
TEMPLE         MOSUNNY   90  66  45 NW13G22   29.94S HX  92
KILLEEN        PTSUNNY   86  68  54 N13       29.97F
KILLEEN-SKYLRK SUNNY     88  66  48 NW10G17   29.96  HX  90
FORT HOOD      MOSUNNY   91  67  44 NW15G21   29.97F HX  94
GATESVILLE     MOSUNNY   84  66  54 N8        30.00F
HAMILTON       CLOUDY    82  65  55 N9        30.02F
LAMPASAS       PTSUNNY   85  69  58 NW9       29.98F
$$

TXZ095>097-106>112-122>126-135>138-148>153-164>167-312300-
EAST TEXAS

CITY           SKY/WX    TMP DP  RH WIND       PRES   REMARKS
PARIS          CLOUDY    70  63  78 NE9       30.00S
SULPHUR SPRNGS CLOUDY    73  71  95 NE7       29.99S FOG
CLARKSVILLE    CLOUDY    72  69  92 NE5       29.99S
MOUNT PLEASANT CLOUDY    72  71  97 E8        29.99S
GILMER         DRIZZLE   72  72 100 E6        29.97F
MINEOLA        CLOUDY    75  73  94 N6        29.96R
TYLER          PTSUNNY   79  74  84 SE9       29.93S
LONGVIEW       CLOUDY    77  72  84 SE8       29.94F
MARSHALL       CLOUDY    73  71  91 CALM      29.98S
ATHENS         MOSUNNY   82  72  69 NW9G18    29.92R
JACKSONVILLE   CLOUDY    77  75  93 SE3       29.96F
HENDERSON      CLOUDY    76  74  93 MISG      29.95F
NACOGDOCHES    CLOUDY    75  73  94 SW3       29.96R THUNDER
LUFKIN         CLOUDY    83  74  74 E6        29.91F
$$

SUPPLEMENTAL OBSERVATIONS (CENTRAL)

CITY           SKY/WX    TMP DP  RH WIND       PRES   REMARKS
LAKE TEXOMA      N/A     68  66  94 N12         N/A
PAT MAYSE LAKE   N/A     66  64  94 N9          N/A
GREENVILLE       N/A     73  68  83 NE7         N/A
CEDAR HILL       N/A     77  66  69 NW6G14      N/A
ATHENS           N/A     82  75  78 NW6         N/A
LAKE LIMESTONE   N/A     82  75  78 S8G21       N/A
MCGREGOR         N/A     86  66  51 N10         N/A
$$

SUPPLEMENTAL OBSERVATIONS (WEST)

CITY           SKY/WX    TMP DP  RH WIND       PRES   REMARKS
MILLERS CREEK    N/A     79  68  69 N12         N/A
GRANBURY         N/A     79  64  61 N9          N/A
COMANCHE         N/A     82  63  51 VRB14       N/A
HAMBY            N/A     81  64  57 N9G17       N/A
$$

SUPPLEMENTAL OBSERVATIONS (EAST)

CITY           SKY/WX    TMP DP  RH WIND       PRES   REMARKS
TEXARKANA        N/A     72  68  88 E3          N/A
LINDEN           N/A     70  66  88 E3G12       N/A
CADDO LAKE       N/A     72  68  88 E2          N/A
LUFKIN           N/A     79  77  94 MISG        N/A
N SABINE NF      N/A     79  73  83 MISG        N/A
$$

SUPPLEMENTAL OBSERVATIONS ARE A COLLECTION OF AUTOMATED INSTRUMENTS
THAT ARE MAINTAINED BY A VARIETY OF FEDERAL AND STATE AGENCIES.
CERTAIN ELEMENTS...SUCH AS HUMIDITY VALUES AND SUSTAINED WIND
SPEEDS...MAY BE APPROXIMATED.




USA.gov is the U.S. government's official web portal to all federal, state and local government web resources and services.